Location: ??????????
(48.4699°N, 37.9573°E)
Time: 02:45:06
(UTC+00:00)

Meteor 2-8 Rocket - Pass Details

Date: 20 January 2021
Orbit: 937 x 957 km, 82.5° (Epoch: 24 February)

Event Time Altitude Azimuth Distance (km) Brightness Sun altitude
Rises 16:29:49 0° 350° (N) 3,614 7.6 -23.1°
Reaches altitude 10° 16:32:19 10° 351° (N) 2,667 6.8 -23.5°
Maximum altitude 16:38:26 84° 80° (E) 956 4.3 -24.5°
Drops below altitude 10° 16:44:32 10° 169° (S) 2,662 6.7 -25.5°
Sets 16:47:01 0° 170° (S) 3,605 7.4 -25.9°
